軌道要素
Epoch 2014 Jan. 23.0 TT = JDT 2456680.5
T 2014 Jan. 16.72451 TT MPC
q 1.8620016 (2000.0) P Q
z +0.0092096 Peri. 345.87425 -0.79423626 -0.57534516
+/-0.0000224 Node 204.40689 -0.50142910 +0.43905072
e 0.9828518 Incl. 151.78451 -0.34315830 +0.69008146
From 550 observations 2014 Feb. 14-May 19, mean residual 0".5.
|